| time (UTC) | temp F | wind direction | speed MPH | gust MPH | rain 1hr in | rain 24hr in | rain mn in | humidity % | barometer mb |
| 20260509150016 | 53 | 0.0 | 1.0 | 0.00 | 0.08 | 0.08 | 70 | 1012.3 | |
| 20260509143015 | 51 | 0.0 | 1.0 | 0.01 | 0.08 | 0.08 | 73 | 1012.6 | |
| 20260509140015 | 50 | 0.0 | 1.0 | 0.01 | 0.08 | 0.08 | 77 | 1012.7 | |
| 20260509133037 | 48 | 0.0 | 1.0 | 0.00 | 0.07 | 0.07 | 76 | 1012.8 | |
| 20260509130017 | 47 | 0.0 | 1.0 | 0.00 | 0.07 | 0.07 | 76 | 1012.6 | |
| 20260509123015 | 46 | 0.0 | 1.0 | 0.01 | 0.07 | 0.07 | 75 | 1012.9 | |
| 20260509120035 | 45 | 0.0 | 1.0 | 0.01 | 0.07 | 0.07 | 74 | 1013.0 | |
| 20260509113015 | 45 | 0.0 | 1.0 | 0.00 | 0.06 | 0.06 | 74 | 1013.2 | |
| 20260509110015 | 45 | 0.0 | 1.0 | 0.00 | 0.06 | 0.06 | 73 | 1013.0 | |
| 20260509103015 | 44 | 0.0 | 1.0 | 0.01 | 0.06 | 0.06 | 73 | 1013.0 | |
| 20260509100016 | 44 | 0.0 | 1.0 | 0.02 | 0.06 | 0.06 | 71 | 1013.1 | |
| 20260509093015 | 44 | 0.0 | 1.0 | 0.01 | 0.05 | 0.05 | 71 | 1013.2 | |
| 20260509090016 | 44 | 0.0 | 1.0 | 0.01 | 0.04 | 0.04 | 70 | 1013.5 | |
| 20260509083036 | 45 | 0.0 | 2.0 | 0.02 | 0.04 | 0.04 | 69 | 1013.4 | |
| 20260509080015 | 45 | 0.0 | 1.0 | 0.03 | 0.03 | 0.03 | 68 | 1013.0 | |
| 20260509073037 | 46 | 0.0 | 0.0 | 0.02 | 0.02 | 0.02 | 67 | 1012.9 | |
| 20260509070017 | 46 | 0.0 | 0.0 | 0.00 | 0.00 | 0.00 | 61 | 1012.8 | |
| 20260509063017 | 47 | 0.0 | 0.0 | 0.00 | 0.00 | 0.00 | 60 | 1013.0 | |
| 20260509060038 | 46 | 0.0 | 1.0 | 0.00 | 0.00 | 0.00 | 59 | 1013.0 | |
| 20260509053016 | 46 | 0.0 | 0.0 | 0.00 | 0.00 | 0.00 | 60 | 1013.3 | |
| 20260509050016 | 47 | 0.0 | 0.0 | 0.00 | 0.00 | 0.00 | 56 | 1013.3 | |
| 20260509043016 | 47 | 0.0 | 0.0 | 0.00 | 0.00 | 0.00 | 59 | 1013.4 | |
| 20260509040038 | 47 | 0.0 | 0.0 | 0.00 | 0.00 | 0.00 | 53 | 1013.3 | |
| 20260509033035 | 46 | 0.0 | 1.0 | 0.00 | 0.00 | 0.00 | 57 | 1013.1 | |
| 20260509030017 | 46 | 0.0 | 0.0 | 0.00 | 0.00 | 0.00 | 57 | 1013.1 | |
| 20260509023017 | 47 | 0.0 | 0.0 | 0.00 | 0.00 | 0.00 | 54 | 1013.1 | |
| 20260509020016 | 47 | 0.0 | 1.0 | 0.00 | 0.00 | 0.00 | 55 | 1012.8 | |
| 20260509013019 | 48 | 0.0 | 0.0 | 0.00 | 0.00 | 0.00 | 51 | 1012.5 | |
| 20260509010038 | 50 | 0.0 | 0.0 | 0.00 | 0.00 | 0.00 | 48 | 1012.0 | |
| 20260509003018 | 52 | 0.0 | 0.0 | 0.00 | 0.00 | 0.00 | 42 | 1011.5 | |
| 20260509000017 | 55 | 0.0 | 0.0 | 0.00 | 0.00 | 0.00 | 35 | 1011.5 | |
| 20260508233036 | 56 | 0.0 | 0.0 | 0.00 | 0.00 | 0.00 | 35 | 1011.0 | |
| 20260508230038 | 57 | 0.0 | 2.0 | 0.00 | 0.00 | 0.00 | 32 | 1010.9 | |
| 20260508223016 | 58 | 45 | 1.0 | 5.0 | 0.00 | 0.00 | 0.00 | 32 | 1010.8 |
| 20260508220016 | 59 | 68 | 1.0 | 5.0 | 0.00 | 0.00 | 0.00 | 26 | 1010.6 |
| 20260508213016 | 59 | 45 | 1.0 | 5.0 | 0.00 | 0.00 | 0.00 | 34 | 1010.7 |
| 20260508210016 | 58 | 45 | 2.0 | 7.0 | 0.00 | 0.00 | 0.00 | 36 | 1010.9 |
| 20260508203016 | 58 | 23 | 2.0 | 7.0 | 0.00 | 0.00 | 0.00 | 40 | 1010.7 |
| 20260508200016 | 58 | 45 | 1.0 | 5.0 | 0.00 | 0.00 | 0.00 | 41 | 1010.8 |
| 20260508193036 | 57 | 23 | 3.0 | 9.0 | 0.00 | 0.00 | 0.00 | 44 | 1011.1 |
| 20260508190036 | 59 | 45 | 3.0 | 8.0 | 0.00 | 0.00 | 0.00 | 44 | 1011.2 |
| 20260508183017 | 61 | 23 | 1.0 | 4.0 | 0.00 | 0.00 | 0.00 | 41 | 1011.1 |
| 20260508180016 | 59 | 315 | 1.0 | 6.0 | 0.00 | 0.00 | 0.00 | 38 | 1011.2 |
| 20260508173016 | 58 | 45 | 1.0 | 4.0 | 0.00 | 0.00 | 0.00 | 45 | 1010.9 |
| 20260508170016 | 56 | 0.0 | 3.0 | 0.00 | 0.00 | 0.00 | 43 | 1011.3 | |
| 20260508163016 | 52 | 293 | 1.0 | 6.0 | 0.00 | 0.00 | 0.00 | 50 | 1011.5 |
| 20260508160036 | 55 | 0.0 | 4.0 | 0.00 | 0.00 | 0.00 | 42 | 1011.6 | |
| 20260508153016 | 57 | 225 | 1.0 | 6.0 | 0.00 | 0.00 | 0.00 | 36 | 1011.2 |